Regional Weather Roundup
Issued by NWS Glasgow, MT

Home | Current Version | Previous Version | Text Only | Print | Product List | Glossary On
Versions: 1 2 3 4 5 6 7 8 9 10 11 12 13 14 15 16 17 18 19 20 21 22 23 24 25 26 27 28 29 30 31 32 33 34 35 36 37 38 39 40 41 42 43 44 45 46 47 48 49 50
000
ASUS45 KGGW 221815
RWRGGW
HOURLY REGIONAL WEATHER ROUNDUP FOR NORTHEAST MONTANA
NATIONAL WEATHER SERVICE GLASGOW MONTANA
1100 AM MST WED FEB 22 2017

NOTE: "FAIR" INDICATES FEW OR NO CLOUDS BELOW 12,000 FEET WITH NO
SIGNIFICANT WEATHER AND/OR OBSTRUCTIONS TO VISISBILITY.

NORTHEAST MONTANA


CITY           SKY/WX    TMP DP  RH WIND       PRES   REMARKS
GLASGOW        CLOUDY    31  26  82 VRB5      29.94R HAZE
6HR MIN TEMP:  30; 6HR MAX TEMP:  31; 6HR PCP:  0.02;

PLENTYWOOD       N/A     32  25  75 N8          N/A
WOLF POINT     CLOUDY    34  24  67 N13       29.94S
JORDAN           N/A     32  28  85 CALM      29.91S
WINNETT          N/A     34  32  92 NE6         N/A
SIDNEY         CLOUDY    32  28  85 N13       29.91R
GLENDIVE       FLURRIES  30  28  92 N12       29.90R
MALTA            N/A     34  28  79 NE2         N/A
SCOBEY           N/A     31  17  56 N8        29.90R

FORT PECK REPORTS


CITY           SKY/WX    TMP DP  RH WIND       PRES   REMARKS
FORT PECK        N/A     30  30 100 NE8         N/A
THE PINES        N/A     32  28  85 CALM        N/A

SOUTHEAST MONTANA


CITY           SKY/WX    TMP DP  RH WIND       PRES   REMARKS
BILLINGS       CLOUDY    38  31  76 N9        29.90R
MILES CITY     LGT SNOW  34  32  92 N9        29.90R FOG
BAKER          CLOUDY    32  30  92 N13       29.85R
LIVINGSTON     CLOUDY    37  23  56 W17       29.89R

CENTRAL MONTANA


CITY           SKY/WX    TMP DP  RH WIND       PRES   REMARKS
HAVRE          LGT SNOW  33  32  96 NE6       29.93R FOG
LEWISTOWN      LGT SNOW  31  30  96 W7        29.87S FOG
GREAT FALLS    CLOUDY    36  29  75 CALM      29.89R
CUT BANK       CLOUDY    30  26  85 N15       29.90R
HELENA         CLOUDY    39  23  52 W10       29.91R
BUTTE          CLOUDY    31  23  72 E3        29.90S
BOZEMAN        CLOUDY    34  29  82 E5        29.92F

WESTERN MONTANA


CITY           SKY/WX    TMP DP  RH WIND       PRES   REMARKS
MISSOULA       PTSUNNY   34  33  96 SW3       29.98S
KALISPELL      NOT AVBL

NORTH DAKOTA


CITY           SKY/WX    TMP DP  RH WIND       PRES   REMARKS
WILLISTON      CLOUDY    31  26  82 N8        29.91R
DICKINSON      LGT SNOW  30  27  88 N13       29.81R FOG
MINOT          CLOUDY    33  28  81 N16       29.85R
BISMARCK       LGT SNOW  35  32  88 N10       29.81R FOG

SOUTHERN SASKATCHEWAN


CITY           SKY/WX    TMP DP  RH WIND       PRES   REMARKS
REGINA         PTSUNNY   32  27  80 W13       29.92R
MOOSE JAW      PTSUNNY   36  27  69 NW10      29.94R
ESTEVAN        CLOUDY    30  25  80 NW8       29.90S
SWIFT CURRENT  MOSUNNY   34  27  75 NW7       29.90S




USA.gov is the U.S. government's official web portal to all federal, state and local government web resources and services.